This is the latest recevied weather packets stored in our database for station/object KB3FKJ. If no packets are shown the sender has not sent any weather packets the latest 10 day(s).
| Time | Temp. | Humidity | Pressure | Rain* | Wind** | Luminosity | Snow |
|---|---|---|---|---|---|---|---|
| 1777563273 | 11.67° C | 77% | 1009.1 hPa | 0 mm | - | 68 W/m² | - |
| 1777562970 | 11.67° C | 76% | 1009.1 hPa | 0 mm | - | 84 W/m² | - |
| 1777562665 | 10.56° C | 76% | 1009.1 hPa | 0 mm | - | 198 W/m² | - |
| 1777562360 | 11.11° C | 74% | 1008.9 hPa | 0 mm | - | 235 W/m² | - |
| 1777562056 | 10.56° C | 74% | 1009 hPa | 0 mm | - | 205 W/m² | - |
| 1777561753 | 10.56° C | 74% | 1009.1 hPa | 0 mm | - | 173 W/m² | - |
| 1777561449 | 10.56° C | 76% | 1009 hPa | 0 mm | - | 175 W/m² | - |
| 1777561144 | 10.56° C | 74% | 1008.9 hPa | 0 mm | - | 178 W/m² | - |
| 1777560839 | 10.56° C | 74% | 1009.1 hPa | 0 mm | - | 187 W/m² | - |
| 1777560537 | 10.56° C | 73% | 1009.1 hPa | 0 mm | - | 189 W/m² | - |
| 1777560235 | 10.56° C | 76% | 1008.9 hPa | 0 mm | - | 171 W/m² | - |
| 1777559931 | 10.56° C | 76% | 1008.9 hPa | 0 mm | - | 156 W/m² | - |
| 1777559626 | 10.56° C | 76% | 1009.1 hPa | 0 mm | - | 149 W/m² | - |
| 1777559325 | 10.56° C | 74% | 1008.8 hPa | 0 mm | - | 146 W/m² | - |
| 1777559020 | 10.56° C | 75% | 1008.9 hPa | 0 mm | - | 167 W/m² | - |
| 1777558716 | 10.56° C | 77% | 1008.8 hPa | 0 mm | - | 168 W/m² | - |
| 1777558412 | 10.56° C | 76% | 1008.7 hPa | 0 mm | - | 197 W/m² | - |
| 1777558108 | 10° C | 76% | 1008.8 hPa | 0 mm | - | 174 W/m² | - |
| 1777557805 | 10° C | 80% | 1008.9 hPa | 0 mm | - | 119 W/m² | - |
| 1777557502 | 9.44° C | 81% | 1008.9 hPa | 0 mm | - | 111 W/m² | - |
| 1777557198 | 9.44° C | 78% | 1008.8 hPa | 0 mm | - | 111 W/m² | - |
| 1777556894 | 9.44° C | 78% | 1008.8 hPa | 0 mm | - | 106 W/m² | - |
| 1777556590 | 9.44° C | 79% | 1008.7 hPa | 0 mm | - | 114 W/m² | - |
| 1777556289 | 9.44° C | 80% | 1008.8 hPa | 0 mm | - | 136 W/m² | - |
| 1777555986 | 9.44° C | 79% | 1008.7 hPa | 0 mm | - | 117 W/m² | - |
* Rain latest hour (hover to see other rain measurements)
** Current wind speed in m/s (hover to see current wind gust speed)